Location: Unspecified
(0.0000°N, 0.0000°E)
Time: 02:56:32
(UTC+00:00)

Vanguard 1 - Pass Details

Date: 19 December 2023
Orbit: 653 x 3826 km, 34.3° (Epoch: 22 February)

Event Time Altitude Azimuth Distance (km) Brightness Sun altitude
Rises 19:20:13 0° 323° (NW) 6,066 14.3 -19.0°
Reaches altitude 10° 19:24:16 10° 331° (NNW) 5,456 13.9 -19.9°
Maximum altitude 19:40:45 39° 36° (NE) 4,635 13.0 -23.6°
Enters shadow 19:48:38 32° 69° (ENE) 5,217 13.1 -25.4°
Drops below altitude 10° 20:01:29 10° 97° (E) 6,857 - -28.3°
Sets 20:07:16 0° 104° (ESE) 7,713 - -29.6°
